Location: Newark
(46.7636°N, 1.8358°W)
Time: 08:16:00
(UTC+00:00)

Vanguard 2 Rocket - Pass Details

Date: 19 October 2019
Orbit: 554 x 3326 km, 32.9° (Epoch: 13 November)

Event Time Altitude Azimuth Distance (km) Brightness Sun altitude
Rises 08:58:25 0° 222° (SW) 6,503 11.3 21.3°
Reaches altitude 10° 09:02:47 10° 216° (SW) 5,768 11.2 21.9°
Maximum altitude 09:19:30 40° 155° (SSE) 4,264 11.9 23.9°
Drops below altitude 10° 09:36:25 10° 95° (E) 5,861 11.7 25.7°
Sets 09:40:52 0° 88° (E) 6,616 11.8 26.2°
